TimeEDT,TemperatureF,Dew PointF,Humidity,Sea Level PressureIn,VisibilityMPH,Wind Direction,Wind SpeedMPH,Gust SpeedMPH,PrecipitationIn,Events,Conditions,WindDirDegrees,DateUTC
12:53 AM,60.1,50.0,69,29.99,10.0,NNE,9.2,-,N/A,,Scattered Clouds,30,2013-10-08 04:53:00
1:53 AM,59.0,50.0,72,30.01,10.0,East,5.8,-,N/A,,Partly Cloudy,90,2013-10-08 05:53:00
2:53 AM,60.1,50.0,69,30.00,10.0,NE,11.5,-,N/A,,Overcast,50,2013-10-08 06:53:00
3:53 AM,60.1,48.9,67,29.99,10.0,NE,10.4,-,N/A,,Mostly Cloudy,50,2013-10-08 07:53:00
4:53 AM,59.0,48.9,69,30.00,10.0,NNE,16.1,-,N/A,,Clear,30,2013-10-08 08:53:00
5:53 AM,57.9,48.9,72,30.04,10.0,NE,12.7,-,N/A,,Overcast,40,2013-10-08 09:53:00
6:53 AM,59.0,48.9,69,30.07,10.0,NE,12.7,-,N/A,,Overcast,40,2013-10-08 10:53:00
7:53 AM,59.0,48.0,67,30.10,10.0,NE,16.1,-,N/A,,Overcast,40,2013-10-08 11:53:00
8:53 AM,59.0,45.0,60,30.12,10.0,NE,17.3,31.1,N/A,,Overcast,40,2013-10-08 12:53:00
9:53 AM,60.1,45.0,57,30.15,10.0,NE,17.3,25.3,N/A,,Overcast,40,2013-10-08 13:53:00
10:53 AM,64.0,44.1,48,30.16,10.0,NE,20.7,29.9,N/A,,Scattered Clouds,40,2013-10-08 14:53:00
11:53 AM,66.9,44.1,44,30.16,10.0,NE,18.4,26.5,N/A,,Mostly Cloudy,40,2013-10-08 15:53:00
12:53 PM,69.1,46.0,44,30.15,10.0,NE,17.3,23.0,N/A,,Clear,50,2013-10-08 16:53:00
1:53 PM,69.1,46.9,45,30.13,10.0,ENE,16.1,24.2,N/A,,Clear,70,2013-10-08 17:53:00
2:53 PM,71.1,48.0,44,30.12,10.0,NE,13.8,-,N/A,,Clear,50,2013-10-08 18:53:00
3:53 PM,71.1,48.9,45,30.12,10.0,ENE,12.7,19.6,N/A,,Scattered Clouds,70,2013-10-08 19:53:00
4:53 PM,69.1,48.9,49,30.13,10.0,ENE,13.8,19.6,N/A,,Overcast,60,2013-10-08 20:53:00
5:53 PM,68.0,50.0,52,30.14,10.0,ENE,10.4,-,N/A,,Overcast,60,2013-10-08 21:53:00
6:53 PM,66.9,48.9,52,30.14,10.0,NE,10.4,-,N/A,,Overcast,50,2013-10-08 22:53:00
7:53 PM,66.0,50.0,56,30.16,10.0,ENE,9.2,-,N/A,,Overcast,70,2013-10-08 23:53:00
8:53 PM,64.9,48.9,56,30.18,10.0,ENE,12.7,-,N/A,,Overcast,70,2013-10-09 00:53:00
9:53 PM,64.0,45.0,50,30.19,10.0,ENE,11.5,-,N/A,,Overcast,60,2013-10-09 01:53:00
10:53 PM,63.0,44.1,50,30.19,10.0,NE,13.8,-,N/A,,Overcast,50,2013-10-09 02:53:00
11:53 PM,61.0,44.1,54,30.19,10.0,NE,11.5,20.7,N/A,,Scattered Clouds,50,2013-10-09 03:53:00